STARLINK-3928, 52606

Orbit data source: Space-Track

STARLINK-3928, 52606 is a payload satellite owned by SpaceX/Seattle (US) in LEO that was launched on Sat, 14 May 2022 UTC via an FALCON 9 launch vehicle from the Air Force Eastern Test Range (AFETR). Payload-class satellites include a variety of spacecraft equipped with specific instruments for various scientific and technological missions. These include communications satellites like Starlink; space stations such as the ISS; scientific satellites like the Hubble; Earth observation satellites from companies like Planet Labs, Umbra, and HawkEye 360; GPS; miniature CubeSats for education and research; and military/defense satellites.

Loading next visibility...
Identifier
52606, 2022-052J
Orbit
LEO
Country
Flag of USUS
Related business
Manufacturer
SpaceX/Seattle
Mission
Operational Commercial Communications
Bus & Motor
STARLINK, Unknown motor
Mass
297 kg wet, ~275 kg dry
Launch date (UTC)
2022-05-14 (4 years ago)
Launch vehicle
FALCON 9
Launch site
Air Force Eastern Test Range (AFETR)
Object type
Payload
Rocket body
Debris
Shape & HBR
Box + 1 Pan, 10.1 m
Radar Cross Section
13.562 m², Large (>1 m²)

Expand to show TLE details & history
Last TLE update: 2 days ago

TLE from 2 days ago
0 STARLINK-3928
1 52606U 22052J   26171.39047771  .00000067  00000-0  22299-4 0  9996
2 52606  53.1585 177.9639 0001288  83.9178 276.1960 15.08831234226360
Epoch: 2026-06-20T09:22Z
TLE epoch observation values (Epoch: 2026-06-20T09:22:17.274Z)
Latitude
-0.00001°
Longitude
128.78613°
Altitude
540.565 km
Speed
7.593 km/s
True Right ascension
11h 51m 51s
True Declination
0° 00' 00"
Sunlit
Object was in daylight at epoch
Visualization orbit readout
Latitude
Unknown
Longitude
Unknown
Altitude
Unknown
Speed
Unknown
Apparent Right ascension
Unknown
Apparent Declination
Unknown
Sunlit
N/A
Visualization observer readout
Local Sidereal Time
21:26:58
Azimuth
Unknown
Elevation
Unknown
Doppler factor
Unknown
Orbital elements
Apogee altitude
540.916 km
Perigee altitude
539.133 km
Semi-major axis
6,918.162 km
Eccentricity
0.00013
Inclination
53.1585°
RAAN
177.9639°
Arg. of periapsis
83.9178°
True anomaly
276.18133°
Mean anomaly
276.196°
Eccentric anomaly
276.18866°
Mean motion
3.77187 °/min
Orbital period
95.44 mins
BSTAR
0.000022299
Loading maneuver chart data...
Computing Atmospheric mass density...
Loading historical data...
Loading historical data...
Loading historical data...
Loading historical data...
Loading historical data...
Loading historical data...
Loading historical data...

Documentation

Showing up to 5 results
|